Airfield :







YOU CAN JOIN US ON...

 
LOGIN :

Register | Disclaimer

   EN    FR    IT 

 









Legend :    VFR   Marginal VFR   IFR   Intensive IFR   Very Intensive IFR
Visi :
Ceiling :
>= 8 km
>= 3000ft
5 to 8 km
1000 to 3000 ft
1500m to 5 km
500 to 1000 ft
800 to 1500m
200 to 500 ft
< 800m
< 200 ft
Symbols :   Thunderstorms  Fog  Heavy snow  Heavy precipitations  Wind > 20 kt







- Airport Elevation : 76 ft
- IATA code : EGS


BIEG - Egilsstaðir

CURRENT METAR :
  • 200600Z 20008KT 9999 FEW060 05/01 Q1005

EXPIRED METARs :
  • 200500Z 22012KT 9999 FEW050 06/01 Q1004
  • 200400Z 22016KT 9999 FEW050 07/01 Q1004

TAF TAF BIEG
Valid from the 20 at 06:00 until the 21 at 06:00 UTC


200447Z 2006/2106 21015KT 9999 SCT050 TX12/2015Z TN03/2106Z
TEMPO 2008/2017 21020G30KT
No reported NOTAMs for that airfield.



MET'MAP, your aeronautical weather chart ! - Copyright ORBIFLY December 2007 - Disclaimer

ORBIFLY MET'MAP TEAM :

Programming & Development : Alexandra Zaïnal
Concept & Development : Baudouin d'Aumeries
Co-Development & Prog : Marc-Olivier Méhu
Technical & hardware support : Manuel Goepfert

Contact : metmap@orbifly.com




SOURCES & CREDITS :

   NOAA